シューメーカー-レヴィ第4彗星

118P/Shoemaker-Levy 4 (1997)

English version
Home page
Updated on July 26, 2009

---------------------------------------------------------------------

・ プロフィール

符号 118P/1995 M1
検出日 1995年6月22日
検出光度 21.9等
検出者 J. V. Scotti (Kitt Peak)

・ 写真集

・ 軌道要素

   The following improved orbital elements by Kenji Muraoka, are 
  from 237 observations 1991 to 1998, perturbations by 9 Planets,
  Moon and 5 minor planets were taken into account. 
   The mean residual is +/- 0.75 arc seconds.

      Epoch  =  1997 Feb.  1.0  TT       JDT = 2450480.5
          T  =  1997 Jan. 12.11225       +/- 0.00025 (m.e.) TT
       Peri. =  301.97973                +/- 0.00013
       Node  =  152.09627                +/- 0.00012   (2000.0)
       Incl. =    8.47342                +/- 0.00001
          q  =    2.0211344              +/- 0.0000009 AU
          e  =    0.4205115              +/- 0.0000002
          a  =    3.4877906              +/- 0.0000006 AU
          n  =    0.15131378             +/- 0.00000004
          P  =    6.514                  +/- 0.0000016  years

・ 星図

・ 1996年 6月 6日〜1997年 7月 1日

・ 光度変化

        m1 =  8.2 + 5 logΔ + 18.0 log r  [    ,-100]  (              〜1996年10月 4日)
        m1 = -6.0 + 5 logΔ + 60.0 log r  [-100, 100]  (1996年10月 4日〜1997年 4月22日)
        m1 =  8.2 + 5 logΔ + 18.0 log r  [ 100,    ]  (1997年 4月22日〜              )

        ※ 灰色の曲線は、m1 = 8.2 + 5 logΔ + 18.0 log r の光度曲線です。

---------------------------------------------------------------------

軌道要素は村岡健治氏の計算によるものです。
星図は StellaNavigator Ver.2.0 for Windows (アストロアーツ 編著 / アスキー出版局刊) で作成したものです。
光度グラフはComet for Windowsで作成したものです。

---------------------------------------------------------------------

Copyright(C) Seiichi Yoshida (comet@aerith.net). All rights reserved.